Regional Weather Roundup
Issued by NWS Bismarck, ND

Home | Current Version | Previous Version | Text Only | Print | Product List | Glossary On
Versions: 1 2 3 4 5 6 7 8 9 10 11 12 13 14 15 16 17 18 19 20 21 22 23 24 25 26 27 28 29 30 31 32 33 34 35 36 37 38 39 40 41 42 43 44 45 46 47 48 49 50
000
ASUS43 KBIS 292210
RWRBIS

NWR BROADCAST TEXT
NATIONAL WEATHER SERVICE BISMARCK ND
500 PM CDT MON AUG 29 2016

NOTE: "FAIR" INDICATES FEW OR NO CLOUDS BELOW 12,000 FEET WITH NO
SIGNIFICANT WEATHER AND/OR OBSTRUCTIONS TO VISIBILITY.


CITY           SKY/WX    TMP DP  RH WIND       PRES   REMARKS
WILLISTON      SUNNY     80  42  25 SE6       30.24F
MINOT          SUNNY     79  43  27 N8        30.23F
MINOT AFB      SUNNY     76  42  30 NW5       30.22F
BISMARCK       SUNNY     81  50  33 NE9       30.22F
DICKINSON      SUNNY     79  41  25 VRB5      30.24F
GARRISON         N/A     79  42  26 N6        30.24F
HETTINGER ARPT SUNNY     82  47  29 E9        30.26F
JAMESTOWN      SUNNY     78  57  48 NW13      30.19S
CARRINGTON     FAIR      77  52  41 NW8G15    30.24R
HAZEN          FAIR      77  37  24 N6        30.26S
LINTON         FAIR      81  57  44 NE8       30.23S
MANDAN         FAIR      79  50  36 NE6       30.24S
OAKES            N/A    N/A N/A N/A MISG        N/A
RUGBY          FAIR      73  45  35 NW10      30.23F
STANLEY        FAIR      77  43  29 VRB3      30.28S
WATFORD CITY   FAIR      81  41  24 CALM      30.24F
$$

CITY           SKY/WX    TMP DP  RH WIND       PRES   REMARKS
GRAND FORKS    MOSUNNY   80  54  40 NW10      30.14S
GRAND FORKS AF SUNNY     79  51  36 N12       30.16
DEVILS LAKE    SUNNY     75  48  38 NW13      30.21F
FARGO          SUNNY     82  65  56 N13       30.15R
CAVALIER       FAIR      73  50  43 NW9G20    30.17S
GRAFTON        FAIR      77  54  44 NW10G17   30.18R
GWINNER        FAIR      82  70  65 N10       30.16S
LANGDON        FAIR      73  48  40 NW15      30.21F
ROLLA          FAIR      70  48  46 NW8       30.24S
$$

CITY           SKY/WX    TMP DP  RH WIND       PRES   REMARKS
ABERDEEN       MOSUNNY   85  69  58 N10       30.14S
MOBRIDGE       SUNNY     87  50  27 NE15      30.15F
BUFFALO          N/A     83  46  27 E13       30.19F
RAPID CITY     SUNNY     83  56  39 E7        30.23F
GLASGOW        SUNNY     82  46  28 SE13      30.19F
SIDNEY         SUNNY     81  45  28 E7        30.22F
WOLF POINT     SUNNY     83  44  25 SE5       30.20F
GLENDIVE       SUNNY     83  48  29 E9        30.22F
MILES CITY     SUNNY     88  46  23 SE9       30.17F
BAKER          SUNNY     83  45  26 SE13G22   30.25F
$$

CITY           SKY/WX    TMP DP  RH WIND       PRES   REMARKS
BILLINGS       MOSUNNY   84  47  27 E13       30.18F
GREAT FALLS    CLOUDY    88  39  17 NE8       30.13F
REGINA         MOSUNNY   70  43  37 VRB5      30.24F
ESTEVAN        MOSUNNY   75  41  29 W5        30.24F
$$





USA.gov is the U.S. government's official web portal to all federal, state and local government web resources and services.